Find Iridium Next SV112

NORAD ID: 41925 Int'l Des: 2017-003 Owner: IRIDS Country: US Constellation: Iridium NEXT operational
LEOCIRCULARPOLAR

实时位置

正在加载3D地球...

关于 Iridium Next SV112

正在加载描述...

即将过境

Passes for default location (London). Set your location on the main map for personalized predictions.

高度历史

Loading altitude history...

两行轨道根数

1 41925U 17003J 26104.43488708 .00000016 00000-0 -13091-5 0 9994
2 41925 86.3926 114.9696 0002030 91.8298 268.3130 14.34217520484137
Epoch: Apr 14, 2026 • Age: 9 hours

当前状态

高度 781.8 km
速度 7.46 km/s
星下点 -5.71°S, 157.1°E
发射日期 Jan 14, 2017
运行时间 9.2 years
类型 communications

技术详情

分类 Payload
质量 860.00 kg
干质量 700.00 kg
总质量 860.00 kg
长度 3.10 m
直径 1.50 m
跨度 9.40 m
形状 Half Hex Prism+2 pan
制造商 OATKGA
平台类型 EliteBus
阶段状态 In Orbit
所有者/国家 IRIDS/US

Most Searched